[[{"header":{"parameterUnit":"m.s-1","parameterCategory":1,"la1":30.2992,"la2":30.254,"lo1":-89.0895,"lo2":-89.0443,"dy":0.0025,"dx":0.0025,"nx":19,"ny":19,"refTime":"2026-03-23T09:00:00:Z","depth":0,"parameterNumber":2,"parameterNumberName":"U-component_of_WINDS"},"data":[0,0,0,-3.6436,-3.6441,-3.6731,-3.6732,-3.7084,-3.7087,0,0,0,0,0,0,0,0,0,0,0,-3.6339,-3.6341,-3.6435,-3.6442,-3.6731,-3.6732,-3.7084,-3.7087,0,0,0,0,0,0,0,0,0,0,0,-3.6338,-3.634,-3.6343,-3.6443,-3.673,-3.6732,-3.7083,-3.6871,0,0,0,0,0,0,0,0,0,0,-3.6594,-3.6493,-3.634,-3.6343,-3.6445,-3.673,-3.6732,-3.6861,-3.6884,-3.6945,0,-3.6996,0,-3.7047,-3.711,-3.7111,0,0,0,-3.6451,-3.6473,-3.6562,-3.6343,-3.6447,-3.673,-3.6603,-3.6874,-3.6901,-3.6976,-3.7001,-3.7015,-3.7053,-3.7112,-3.7113,-3.7434,-3.7435,0,0,-3.6435,-3.6385,-3.6543,-3.6578,-3.6531,-3.6594,-3.6612,-3.6891,-3.6915,-3.7003,-3.7023,-3.7059,-3.7114,-3.7116,-3.7433,-3.7434,0,0,0,-3.6383,-3.6373,-3.6455,-3.6563,-3.6616,-3.6602,-3.6623,-3.6903,-3.6934,-3.7027,-3.7063,-3.7116,-3.712,-3.7432,-3.7434,-3.7437,0,0,0,-3.6374,-3.6343,-3.6447,-3.642,-3.6611,-3.6763,-3.6628,-3.6914,-3.6947,-3.7061,-3.7116,-3.7123,-3.7431,-3.7433,-3.7435,-3.7447,0,0,0,-3.6324,-3.6337,-3.6375,-3.6416,-3.6539,-3.676,-3.6807,-3.6923,-3.6969,-3.7111,-3.7124,-3.743,-3.7433,-3.7432,-3.7443,-3.7515,0,0,0,-3.6256,-3.6375,-3.6374,-3.6522,-3.6536,-3.676,-3.6806,-3.6975,-3.7098,-3.7118,-3.7431,-3.7434,-3.7432,-3.7441,-3.7512,-3.7565,-3.7583,0,0,-3.6379,-3.6388,-3.6479,-3.6487,-3.6697,-3.672,-3.6933,-3.7093,-3.7153,-3.7337,-3.7346,-3.7436,-3.7443,-3.7515,-3.7704,-3.7717,0,0,0,-3.6501,-3.6565,-3.6632,-3.6746,-3.6871,-3.6979,-3.7113,-3.7172,-3.7331,-3.7237,-3.7484,-3.749,-3.7534,-3.7561,-3.7573,-3.7614,-3.7445,-3.7444,-3.7444,-3.6602,-3.6672,-3.6826,-3.6931,-3.7041,-3.7177,-3.7273,-3.7377,-3.7416,-3.7473,-3.7527,-3.7634,-3.7664,-3.7673,-3.7714,-3.7563,-3.7563,-3.7563,-3.7563,-3.6786,-3.6888,-3.6937,-3.7104,-3.7178,-3.732,-3.7456,-3.7479,-3.7622,-3.7599,-3.7641,-3.7607,-3.7686,-3.7726,-3.7564,-3.7564,-3.7564,-3.7564,-3.7564,-3.6858,-3.6919,-3.6989,-3.7161,-3.7286,-3.7389,-3.7523,-3.7587,-3.7647,-3.769,-3.7753,-3.7753,-3.7759,-3.7716,-3.7716,-3.7717,-3.7717,-3.7717,-3.7717,-3.6904,-3.6983,-3.7088,-3.7231,-3.7312,-3.7428,-3.7566,-3.7649,-3.7756,-3.7791,-3.7792,-3.7824,-3.7681,-3.7642,-3.7723,-3.7722,-3.7722,-3.7721,-3.7721,-3.7061,-3.7036,-3.7197,-3.7279,-3.7452,-3.7571,-3.7651,-3.7813,-3.789,-3.7955,-3.798,-3.7864,-3.7878,-3.7869,-3.7837,-3.7964,-3.7964,-3.7964,-3.7964,-3.712,-3.7134,-3.7313,-3.7439,-3.757,-3.7658,-3.7839,-3.7949,-3.8058,-3.8111,-3.8102,-3.8066,-3.8055,-3.8076,-3.8063,-3.8034,-3.8208,-3.8209,-3.8209,-3.722,-3.725,-3.739,-3.7496,-3.7636,-3.7755,-3.7927,-3.807,-3.819,-3.822,-3.8153,-3.8142,-3.8086,-3.8064,-3.8089,-3.8067,-3.8016,0,0]},{"header":{"parameterUnit":"m.s-1","parameterCategory":1,"la1":30.2992,"la2":30.254,"lo1":-89.0895,"lo2":-89.0443,"dy":0.0025,"dx":0.0025,"nx":19,"ny":19,"refTime":"2026-03-23T09:00:00:Z","depth":0,"parameterNumber":3,"parameterNumberName":"V-component_of_WINDS"},"data":[0,0,0,2.1838,2.184,2.1953,2.1954,2.2071,2.2072,0,0,0,0,0,0,0,0,0,0,0,2.1791,2.1791,2.1838,2.1841,2.1953,2.1954,2.2071,2.2072,0,0,0,0,0,0,0,0,0,0,0,2.1791,2.1791,2.1792,2.1841,2.1953,2.1954,2.2071,2.1995,0,0,0,0,0,0,0,0,0,0,2.189,2.1833,2.1791,2.1792,2.1842,2.1953,2.1954,2.1991,2.1999,2.2009,0,2.2016,0,2.2046,2.2078,2.2079,0,0,0,2.185,2.1826,2.1869,2.1792,2.1842,2.1952,2.1905,2.1996,2.2005,2.202,2.2018,2.2023,2.2048,2.2079,2.2079,2.2107,2.2107,0,0,2.1844,2.1803,2.1863,2.1874,2.1858,2.1901,2.1908,2.2002,2.1997,2.2019,2.2026,2.205,2.2079,2.208,2.2108,2.2107,0,0,0,2.182,2.1798,2.184,2.1869,2.1891,2.1904,2.1912,2.1993,2.201,2.2028,2.2051,2.208,2.2081,2.2108,2.2107,2.205,0,0,0,2.1816,2.1784,2.1837,2.1812,2.1889,2.1944,2.19,2.2003,2.2015,2.2051,2.208,2.2082,2.2109,2.2108,2.2053,2.2029,0,0,0,2.1788,2.1781,2.1793,2.181,2.1857,2.1943,2.1966,2.2007,2.2029,2.2079,2.2082,2.2109,2.2108,2.2055,2.2033,2.2023,0,0,0,2.1746,2.174,2.1791,2.1794,2.1856,2.1908,2.1966,2.2007,2.2043,2.208,2.2108,2.2107,2.2056,2.2035,2.2025,2.2006,2.1995,0,0,2.1715,2.1735,2.174,2.1789,2.1821,2.1894,2.1918,2.1989,2.2031,2.2079,2.208,2.2052,2.2033,2.2024,2.195,2.1941,0,0,0,2.1716,2.1718,2.1736,2.1769,2.1825,2.1869,2.1942,2.1968,2.2011,2.2048,2.2048,2.2038,2.2034,2.2027,2.2019,2.2017,2.2103,2.2103,2.2103,2.1612,2.1667,2.1678,2.1746,2.1777,2.1852,2.1882,2.193,2.1976,2.1975,2.1989,2.1938,2.1928,2.1922,2.192,2.1985,2.1985,2.1985,2.1985,2.1571,2.1582,2.1644,2.1677,2.1734,2.1761,2.1833,2.1865,2.1897,2.1932,2.1931,2.1963,2.191,2.1911,2.1981,2.1982,2.1982,2.1982,2.1983,2.1507,2.1522,2.1555,2.1608,2.1643,2.1712,2.1741,2.1793,2.1841,2.1841,2.186,2.1861,2.1866,2.1847,2.1846,2.1846,2.1846,2.1846,2.1846,2.1426,2.1466,2.1484,2.1543,2.157,2.1613,2.1689,2.1717,2.1761,2.1796,2.1797,2.184,2.1896,2.1908,2.1843,2.1844,2.1844,2.1844,2.1845,2.136,2.1383,2.1411,2.1439,2.1511,2.1541,2.1608,2.166,2.1691,2.1703,2.1749,2.1782,2.1805,2.1812,2.1821,2.1738,2.1738,2.1738,2.1738,2.1304,2.1321,2.1361,2.1402,2.1448,2.1511,2.1538,2.1597,2.1661,2.1683,2.1703,2.1721,2.1726,2.1746,2.1754,2.1763,2.1668,2.1668,2.1668,2.1265,2.1289,2.1303,2.1367,2.1428,2.1478,2.1505,2.1548,2.1625,2.1666,2.1701,2.1704,2.1734,2.1741,2.1779,2.1791,2.1809,0,0]}]]